Regional Weather Roundup
Issued by NWS Charleston, SC

Home | Current Version | Previous Version | Text Only | Print | Product List | Glossary On
Versions: 1 2 3 4 5 6 7 8 9 10 11 12 13 14 15 16 17 18 19 20 21 22 23 24 25 26 27 28 29 30 31 32 33 34 35 36 37 38 39 40 41 42 43 44 45 46 47 48 49 50
000
ASUS42 KCHS 272325
RWRCHS

REGIONAL WEATHER ROUNDUP
NATIONAL WEATHER SERVICE CHARLESTON SC
600 PM EST TUE JAN 27 2015

NOTE: "FAIR" INDICATES FEW OR NO CLOUDS BELOW 12,000 FEET WITH NO
SIGNIFICANT WEATHER AND/OR OBSTRUCTIONS TO VISIBILITY.

NOT ALL STATIONS ARE QUALITY CONTROLLED BY THE NATIONAL
WEATHER SERVICE. USE DATA WITH CAUTION...ESPECIALLY
DEWPOINT OBSERVATIONS.

SCZ027-030-031-034>040-042>050-280000-
...SOUTHEAST SOUTH CAROLINA...

CITY           SKY/WX    TMP DP  RH WIND       PRES   REMARKS
N CHARLESTON   PTCLDY    45  24  43 NW6       29.92R
WATERFRONT PRK   N/A     48 N/A N/A NW7         N/A
MOUNT PLEASANT FAIR     N/A N/A N/A CALM      29.92R
PINOPOLIS      NOT AVBL
MONCKS CORNER  FAIR      45  27  49 CALM      29.92R
SUMMERVILLE    FAIR      46  30  53 W3        29.92R
BEAUFORT MCAS  PTCLDY    47  31  53 NW8       29.93R
BEAUFORT ARPT  FAIR      46  34  61 NW7       29.93R
HILTON HEAD IS CLEAR     48  34  57 NW6       29.93R
WALTERBORO     CLEAR     45  28  53 W5        29.94R
ALLENDALE      FAIR      45  32  61 CALM      29.93R

...SOUTHERN MIDLANDS AND PEE DEE...

CITY           SKY/WX    TMP DP  RH WIND       PRES   REMARKS
GEORGETOWN     NOT AVBL
KINGSTREE      NOT AVBL
ORANGEBURG     CLEAR     47  25  42 NW8       29.92R
BARNWELL       FAIR      45  32  61 CALM      29.94R
AIKEN          FAIR      45  28  53 W5        29.95R
MANNING        FAIR      45  27  49 CALM      29.92R
COLUMBIA       PTCLDY    48  26  42 W8        29.91R
SUMTER         CLEAR     45  23  42 W5        29.89R
FLORENCE       CLEAR     44  17  33 NW5       29.89R
MYRTLE BEACH   CLEAR     46  18  31 NW9       29.89R
N MYRTLE BEACH CLEAR     44  20  38 CALM      29.87R

$$

GAZ063-065-086>088-099>101-113>116-118-119-134>141-150-280000-
...SOUTHEAST GEORGIA...

CITY           SKY/WX    TMP DP  RH WIND       PRES   REMARKS
SAVANNAH ARPT  PTCLDY    49  30  48 NW8       29.94R
HUNTER AAF     CLEAR     50  32  50 NW8       29.92R
FORT STEWART   CLEAR     49  30  47 NW7       29.94R
STATESBORO     CLEAR     45  32  61 W5        29.95R
SYLVANIA       CLEAR     46  35  64 W5        29.95R
CLAXTON        FAIR      46  34  61 W5        29.97R

...CSRA...CENTRAL AND FAR SOUTHEAST GEORGIA...

CITY           SKY/WX    TMP DP  RH WIND       PRES   REMARKS
THOMSON        CLEAR     49  32  52 W12       29.99R
AUGUSTA-BUSH   PTCLDY    49  28  44 W6        29.92R
AUGUSTA-DANIEL PTCLDY    51  28  41 VRB5      29.92R
SWAINSBORO     FAIR      48  23  37 NW5       29.97R
VIDALIA        CLEAR     48  32  53 NW7       29.97R
EASTMAN        FAIR      50  31  47 NW7       30.01R
HAZLEHURST     FAIR      52  32  46 NW3       29.97R
ALMA           CLEAR     53  31  42 N7        29.96R
WAYCROSS       CLEAR     53  36  53 N5        29.97R
JESUP          FAIR      52  36  54 CALM      29.97R
BAXLEY         FAIR      52  32  46 N3        29.96R
BRUNSWICK      CLEAR     52  32  46 NW5       29.97R
SAINT SIMONS   CLEAR     53  31  42 NW9G17    29.95R

$$

SCZ027-028-034-036>038-045-046-048>050-GAZ119-141-280000-
...LAKE AND SUPPLEMENTAL COASTAL OBSERVATIONS...

STATION/POSITION TIME  TEMP    WIND        PRES    WAVE   SWELL
                       AIR SEA DIR/SP/G            HT/PER HT/PER/DIR
                 (UTC) (F)     (DEG/KT/KT) (MB)    (FT/S) (FT/S/D)
UPR LAKE MARION  NOT AVBL
WINYAH BAY       2200   47     310/  8     1010.0R
LAKE MURRAY      2200   49     270/ 10/ 15 1011.9R
ACE BASIN NERRS  NOT AVBL
FORT PULASKI     2300   48 52  300/  6/  7 1014.0R
SAPELO ISLAND    2300   51     320/  8     1014.0R

$$

ANZ835-935-AMZ111-154-330-350-352-354-370-450-454-472-280000-
...C-MAN AND BUOY OBSERVATIONS...

STATION/POSITION TIME  TEMP    WIND        PRES    WAVE   SWELL
                       AIR SEA DIR/SP/G            HT/PER HT/PER/DIR
                 (UTC) (F)     (DEG/KT/KT) (MB)    (FT/S) (FT/S/D)
BUOY 41004       2250   51 67  300/ 19/ 25 1011.7R   4/ 4
BUOY 41008       2250   53 54  320/ 19/ 23 1013.4R   3/ 4
FOLLY BEACH CMAN 2300   45     300/  5/  7 1013.5R
CAPERS NEARSHORE 2200   49     310/ 17/ 19   N/A
FRIPP NEARSHORE  2200   50     330/ 16/ 17   N/A


STATION/POSITION TIME  TEMP    WIND        PRES    WAVE   SWELL
                       AIR SEA DIR/SP/G            HT/PER HT/PER/DIR
                 (UTC) (F)     (DEG/KT/KT) (MB)    (FT/S) (FT/S/D)
5E ST. MARYS GA  2222      58                N/A     3/ 3
FRYING PAN BUOY  2250   46 65  300/ 17/ 21 1011.3R   5/ 8   3/160/ 8
BUOY 41025       2250   39 69  330/ 19/ 27 1008.5R  10/14   8/ 40/14
CAPE LOOKOUT NC  2300   39     320/ 15/ 18 1010.4R
BUOY 41002       2250   58 71  290/ 25/ 31 1006.1R  12/ 9   7/280/ 9
BUOY 41010       2220   63 75  290/ 23/ 29 1012.3R
ST AUGUSTINE FL  2300   60     320/ 12/ 15 1013.6R


$$


USA.gov is the U.S. government's official web portal to all federal, state and local government web resources and services.